DMSP 5D-2 F13 DEB, 40477

Orbit data source: Space-Track

DMSP 5D-2 F13 DEB, 40477 is space debris in SSO originally from a launch on Fri, 24 Mar 1995 UTC launched from the Air Force Western Test Range (AFWTR). Debris objects in space refer to the collection of defunct objects orbiting the Earth. Examples of debris include non-operational satellites, rocket bodies, and fragments generated from explosions, collisions, or faulty payload assembly.

Loading next visibility...
Identifier
40477, 1995-015BV
Orbit
SSO
Country
Flag of USUS
Related business
Manufacturer
Unknown
Mission
Spacecraft
Bus & Motor
Unknown
Mass
Unknown
Launch date (UTC)
1995-03-24 (31 years ago)
Launch vehicle
Unknown
Launch site
Air Force Western Test Range (AFWTR)
Object type
Payload
Rocket body
Debris
Shape & HBR
Unknown shape, 0.1 m
Radar Cross Section
Small (<0.1 m²)

Expand to show TLE details & history
Last TLE update: 2 days ago

TLE from 2 days ago
0 DMSP 5D-2 F13 DEB
1 40477U 95015BV  25348.89222345  .00004778  00000-0  13711-2 0  9990
2 40477  98.5840  26.6929 0020671  75.7696 284.5789 14.45242099560798
Epoch: 2025-12-14T21:24Z
TLE epoch observation values (Epoch: 2025-12-14T21:24:48.106Z)
Latitude
-0.00001°
Longitude
-18.30616°
Altitude
740.507 km
Speed
7.487 km/s
True Right ascension
01h 46m 46s
True Declination
0° 00' 00"
Sunlit
Object was in full shadow at epoch
Visualization orbit readout
Latitude
Unknown
Longitude
Unknown
Altitude
Unknown
Speed
Unknown
Apparent Right ascension
Unknown
Apparent Declination
Unknown
Sunlit
N/A
Visualization observer readout
Local Sidereal Time
09:41:33
Azimuth
Unknown
Elevation
Unknown
Doppler factor
Unknown
Orbital elements
Apogee altitude
753.06 km
Perigee altitude
723.639 km
Semi-major axis
7,116.487 km
Eccentricity
0.00207
Inclination
98.584°
RAAN
26.6929°
Arg. of periapsis
75.7696°
True anomaly
284.34951°
Mean anomaly
284.5789°
Eccentric anomaly
284.46422°
Mean motion
3.6153 °/min
Orbital period
99.58 mins
BSTAR
0.0013711
Loading maneuver chart data...
Computing Atmospheric mass density...

Documentation

Showing up to 5 results
|